This is the latest recevied weather packets stored in our database for station/object SQ7FJB-2. If no packets are shown the sender has not sent any weather packets the latest 10 day(s).
| Time | Temp. | Humidity | Pressure | Rain* | Wind** | Luminosity | Snow |
|---|---|---|---|---|---|---|---|
| 1778067654 | 22.78° C | 47% | 1004.6 hPa | 0 mm | - | - | - |
| 1778067042 | 23.89° C | 45% | 1004.7 hPa | 0 mm | - | - | - |
| 1778066441 | 22.78° C | 47% | 1004.6 hPa | 0 mm | - | - | - |
| 1778065841 | 22.78° C | 49% | 1004.7 hPa | 0 mm | - | - | - |
| 1778065229 | 22.78° C | 49% | 1004.8 hPa | 0 mm | - | - | - |
| 1778064629 | 22.22° C | 49% | 1004.7 hPa | 0 mm | - | - | - |
| 1778064017 | 21.11° C | 52% | 1004.8 hPa | 0 mm | - | - | - |
| 1778063416 | 22.22° C | 50% | 1004.7 hPa | 0 mm | - | - | - |
| 1778062804 | 22.22° C | 50% | 1004.7 hPa | 0 mm | - | - | - |
| 1778062204 | 21.67° C | 50% | 1004.6 hPa | 0 mm | - | - | - |
| 1778061592 | 21.67° C | 50% | 1004.6 hPa | 0 mm | - | - | - |
| 1778060992 | 21.67° C | 51% | 1004.6 hPa | 0 mm | - | - | - |
| 1778060379 | 22.22° C | 48% | 1004.5 hPa | 0 mm | - | - | - |
| 1778059779 | 21.11° C | 52% | 1004.5 hPa | 0 mm | - | - | - |
| 1778059167 | 21.67° C | 50% | 1004.5 hPa | 0 mm | - | - | - |
| 1778058554 | 21.67° C | 51% | 1004.5 hPa | 0 mm | - | - | - |
| 1778057942 | 21.11° C | 52% | 1004.5 hPa | 0 mm | - | - | - |
| 1778057341 | 21.11° C | 54% | 1004.5 hPa | 0 mm | - | - | - |
| 1778056741 | 20.56° C | 53% | 1004.5 hPa | 0 mm | - | - | - |
| 1778056129 | 20° C | 56% | 1004.5 hPa | 0 mm | - | - | - |
| 1778055529 | 20° C | 56% | 1004.4 hPa | 0 mm | - | - | - |
| 1778054917 | 20° C | 56% | 1004.3 hPa | 0 mm | - | - | - |
| 1778054304 | 19.44° C | 56% | 1004.3 hPa | 0 mm | - | - | - |
| 1778053692 | 20.56° C | 56% | 1004.2 hPa | 0 mm | - | - | - |
| 1778053091 | 19.44° C | 57% | 1004.3 hPa | 0 mm | - | - | - |
* Rain latest hour (hover to see other rain measurements)
** Current wind speed in m/s (hover to see current wind gust speed)